Flag for U.S.A. Weather past 2 weeks in Corvallis, Oregon, U.S.A.

Now
48 °F

Clear.


Feels Like: 47 °F
Forecast: 47 / 69 °F
Wind: 3 mph from North

Location: Corvallis Municipal

Current Time: Sep 4, 2015 at 3:46:28 AM

Latest Report: Sep 4, 2015 at 3:15 AM


Visibility: 10 mi

Pressure: 29.98 "Hg

Humidity: 87%

Dew point: 45 °F

Location of CorvallisLocation

Historic Weather in Corvallis — Graph

°F

Corvallis temperature yesterday

Maximum temperature yesterday: 66 °F (at 11:15 AM)
Minimum temperature yesterday: 46 °F (at 4:55 AM)
Average temperature yesterday: 57 °F

Past Weeks' High & Low Weather Summary

 TemperatureHumidityPressure
High91 °F (Aug 27, 4:15 PM)100% (Aug 31, 5:15 AM)30.12 "Hg (Aug 31, 5:15 AM)
Low45 °F (Sep 4, 2:15 AM)15% (Aug 25, 5:55 PM)29.61 "Hg (Aug 29, 1:55 AM)
Average65 °F62%29.98 "Hg
* Reported Aug 20 2:15 AM — Sep 4 2:35 AM, Corvallis, Weather by CustomWeather, © 2015

Note: Actual official high and low records may vary slightly from our data, if they occured in-between our weather recording intervals... More about our weather records

Advertising

Corvallis weather history for previous 24 hours

 ConditionsComfort  
Time TempWeatherWind HumidityBarometerVisibility
2:35 AM
Fri, Sep 4
46 °FClear.3 mph87%29.98 "Hg10 mi
2:15 AM45 °FClear.No wind93%29.99 "Hg10 mi
1:55 AM48 °FClear.5 mph87%29.99 "Hg10 mi
1:35 AM48 °FClear.No wind87%29.99 "Hg10 mi
1:15 AM48 °FClear.7 mph87%29.99 "Hg10 mi
12:55 AM48 °FClear.7 mph87%29.99 "Hg10 mi
12:35 AM48 °FPassing clouds.7 mph87%30.00 "Hg10 mi
12:15 AM48 °FPassing clouds.6 mph87%29.99 "Hg10 mi
11:55 PM
Thu, Sep 3
48 °FClear.6 mph87%30.00 "Hg10 mi
11:35 PM50 °FClear.7 mph76%30.00 "Hg10 mi
11:15 PM54 °FClear.6 mph72%30.00 "Hg10 mi
10:55 PM54 °FClear.7 mph72%30.00 "Hg10 mi
10:35 PM54 °FClear.8 mph72%30.00 "Hg10 mi
10:15 PM55 °FClear.8 mph67%30.01 "Hg10 mi
9:55 PM55 °FClear.7 mph67%30.01 "Hg10 mi
9:35 PM55 °FClear.7 mph67%30.01 "Hg10 mi
9:15 PM55 °FClear.6 mph67%30.01 "Hg10 mi
8:55 PM57 °FPassing clouds.3 mph63%30.01 "Hg10 mi
8:35 PM55 °FPassing clouds.6 mph67%30.00 "Hg10 mi
8:15 PM57 °FSunny.9 mph63%30.00 "Hg10 mi
7:55 PM61 °FSunny.14 mph55%30.00 "Hg10 mi
7:35 PM63 °FPassing clouds.12 mph49%30.00 "Hg10 mi
7:15 PM64 °FPartly sunny.13 mph46%30.00 "Hg10 mi
6:55 PM66 °FOvercast.13 mph43%30.00 "Hg10 mi
6:35 PM66 °FBroken clouds.12 mph40%30.00 "Hg10 mi
6:15 PM66 °FPartly sunny.13 mph43%30.00 "Hg10 mi
5:55 PM64 °FCloudy.5 mph49%30.00 "Hg10 mi
5:35 PM64 °FMostly cloudy.8 mph52%30.01 "Hg10 mi
5:15 PM64 °FBroken clouds.7 mph49%30.01 "Hg10 mi
4:55 PM66 °FBroken clouds.10 mph46%30.01 "Hg10 mi
4:35 PM66 °FPartly sunny.10 mph46%30.01 "Hg10 mi
4:15 PM66 °FOvercast.9 mph49%30.02 "Hg10 mi
3:55 PM66 °FBroken clouds.9 mph46%30.02 "Hg10 mi
3:15 PM66 °FPartly sunny.13 mph49%30.03 "Hg10 mi
2:35 PM66 °FPartly sunny.8 mph43%30.03 "Hg10 mi
2:15 PM66 °FBroken clouds.8 mph43%30.03 "Hg10 mi
1:55 PM66 °FBroken clouds.9 mph40%30.03 "Hg10 mi
1:35 PM66 °FPartly sunny.7 mph43%30.04 "Hg10 mi
1:15 PM64 °FOvercast.9 mph49%30.04 "Hg10 mi
12:55 PM64 °FOvercast.9 mph46%30.04 "Hg10 mi
12:35 PM64 °FPartly sunny.5 mph46%30.04 "Hg10 mi
12:15 PM64 °FPartly sunny.6 mph46%30.05 "Hg10 mi
11:55 AM64 °FPartly sunny.3 mph49%30.05 "Hg10 mi
11:35 AM66 °FPassing clouds.5 mph43%30.06 "Hg10 mi
11:15 AM66 °FPassing clouds.No wind49%30.06 "Hg10 mi
10:55 AM64 °FPassing clouds.5 mph60%30.06 "Hg10 mi
10:35 AM63 °FSunny.5 mph64%30.07 "Hg10 mi
10:15 AM61 °FSunny.5 mph72%30.07 "Hg10 mi
9:55 AM59 °FSunny.No wind72%30.07 "Hg10 mi
9:35 AM57 °FSunny.3 mph77%30.07 "Hg10 mi
9:15 AM55 °FSunny.3 mph82%30.07 "Hg10 mi
8:55 AM54 °FSunny.No wind82%30.08 "Hg10 mi
8:35 AM54 °FSunny.No wind82%30.07 "Hg10 mi
8:15 AM52 °FSunny.No wind82%30.07 "Hg10 mi
7:55 AM48 °FSunny.3 mph94%30.07 "Hg10 mi
7:35 AM48 °FClear.5 mph94%30.07 "Hg9 mi
7:15 AM46 °FClear.3 mph87%30.06 "Hg10 mi
6:55 AM46 °FPassing clouds.3 mph93%30.05 "Hg10 mi
6:35 AM46 °FPassing clouds.6 mph87%30.05 "Hg10 mi
6:15 AM46 °FPassing clouds.7 mph87%30.04 "Hg10 mi
5:55 AM46 °FPassing clouds.No wind93%30.04 "Hg10 mi
5:35 AM46 °FClear.5 mph93%30.04 "Hg10 mi
5:15 AM46 °FClear.No wind93%30.04 "Hg10 mi
4:55 AM46 °FPassing clouds.No wind93%30.04 "Hg10 mi
4:35 AM48 °FClear.3 mph94%30.03 "Hg10 mi
4:15 AM48 °FPassing clouds.5 mph87%30.03 "Hg10 mi
3:55 AM50 °FMostly cloudy.3 mph88%30.03 "Hg10 mi
3:35 AM50 °FPassing clouds.No wind88%30.03 "Hg10 mi
3:15 AM48 °FPassing clouds.No wind87%30.03 "Hg10 mi
Weather by CustomWeather, © 2015

See weather overviewHow to use our weather pages